Location: Ash Swamp
(41.5170°N, 74.6157°W)
Time: 02:43:57
(UTC+00:00)

USA 267 - Pass Details

Date: 14 July 2020
Orbit: 1102 x 1106 km, 123.0° (Epoch: 12 August)

Event Time Altitude Azimuth Distance (km) Brightness Sun altitude
Exits shadow 04:06:48 18° 99° (E) 2,405 4.8 -25.5°
Maximum altitude 04:11:29 50° 31° (NNE) 1,383 4.0 -25.7°
Drops below altitude 10° 04:17:44 10° 319° (NW) 2,965 6.3 -26.0°
Sets 04:20:17 0° 315° (NW) 3,925 7.0 -26.1°
